Dewpoint
72 71 70 66 60 56 45 44 47 47 47 50 52 53 53 56 54 55 61 63 64 65 68 71 73 72 72 72 72 72 72 72 72 72 72 71 70 71 71 71 71 70 71 70 70 70 71 71 71
69 68 67 61 52 45 48 50 44 47 49 51 53 54 55 57 58 60 61 61 62 64 67 69 73 73 72 72 72 71 71 72 72 71 71 71 71 71 71 71 71 72 71 71 70 70 71 71 71
72 67 63 52 48 49 48 50 47 49 51 49 52 55 56 59 59 60 61 60 61 62 64 71 73 72 72 72 72 72 72 72 72 72 72 72 72 72 72 71 72 72 72 71 71 71 71 71 71
66 65 62 48 49 48 51 49 48 50 50 50 49 54 59 60 59 61 60 59 59 61 64 73 72 71 72 72 72 72 71 72 72 72 72 71 72 72 72 72 72 71 72 72 71 71 71 71 70
64 63 52 44 45 46 49 50 50 52 48 49 49 53 58 61 62 60 59 57 57 59 66 70 72 71 71 72 72 73 70 71 73 73 72 72 71 72 72 72 72 71 71 71 71 71 71 71 70
58 53 50 42 42 48 48 51 51 49 47 50 49 54 61 62 61 59 58 56 56 58 63 69 72 71 71 74 72 71 70 69 71 72 73 73 72 72 71 70 71 70 70 72 72 72 71 72 71
52 50 45 47 47 42 50 51 54 48 47 47 50 53 61 61 60 59 57 56 56 58 61 63 66 70 72 74 72 72 72 71 71 70 70 71 70 70 71 72 71 71 71 71 70 71 72 71 71
51 55 51 43 49 49 47 50 51 50 49 53 53 55 57 60 59 58 56 56 55 57 59 61 62 64 66 70 72 74 73 73 73 73 73 73 71 72 71 71 70 69 70 70 71 71 70 72 71
51 53 47 43 51 47 46 46 53 52 50 54 56 52 58 60 58 56 55 56 56 56 56 58 61 63 64 67 70 72 72 72 71 71 72 71 70 71 70 70 71 72 71 70 70 70 71 71 71
46 45 44 46 45 48 44 49 50 52 52 53 55 56 59 59 57 55 55 55 56 56 56 58 60 61 63 62 70 69 70 69 68 69 71 71 69 68 67 70 70 69 69 70 70 71 71 71 64
45 43 45 46 48 47 45 48 48 51 50 52 55 57 59 57 56 54 53 54 55 56 55 58 60 62 63 61 64 64 64 65 68 68 70 65 66 64 70 65 65 64 67 64 65 68 68 63 66
45 46 46 46 47 48 47 48 49 49 49 48 56 58 58 56 56 54 52 53 53 55 56 58 60 63 61 62 62 64 67 65 63 65 69 68 70 69 65 62 60 60 62 63 63 61 64 65 63
44 46 47 48 46 48 48 48 49 47 48 52 56 57 56 55 54 53 52 52 52 54 56 57 60 65 65 66 63 64 63 63 62 65 64 67 62 62 64 65 63 62 62 63 63 63 63 65 66
43 44 45 46 47 48 47 48 51 51 50 52 54 54 53 53 53 52 51 50 53 54 55 57 59 65 67 66 68 69 66 63 68 70 69 67 65 64 65 67 67 66 65 65 66 64 65 65 64
43 43 44 45 46 45 48 48 48 50 50 51 52 52 52 52 52 51 50 52 54 56 57 58 59 61 67 68 68 69 66 65 65 64 67 70 65 64 68 70 67 67 68 66 66 67 67 65 63
40 42 39 42 43 44 47 47 49 51 50 49 52 52 52 51 50 50 51 53 54 55 57 59 59 60 65 67 68 67 67 66 66 66 66 69 70 70 70 68 71 70 71 67 67 66 65 65 66
39 36 37 39 43 43 45 42 49 51 49 48 50 51 52 52 49 52 52 53 53 56 59 61 62 62 63 68 67 67 66 67 66 66 68 70 68 69 70 68 69 71 71 70 68 69 69 67 66
33 33 38 37 41 43 42 41 47 50 50 49 48 50 52 52 52 53 55 55 55 57 61 63 64 66 67 67 69 67 66 66 66 66 67 71 73 72 70 69 70 71 71 69 69 69 70 69 70
31 32 35 38 40 41 42 41 42 49 50 50 50 47 51 51 53 54 55 55 56 58 60 63 65 66 69 68 68 67 65 65 66 67 69 72 72 72 71 70 70 71 70 69 69 69 69 69 69
31 33 39 39 40 40 40 39 42 45 48 49 51 49 48 49 51 53 54 54 55 57 59 62 65 67 69 68 69 68 66 66 67 68 69 71 71 71 71 71 71 71 70 69 69 70 70 70 70
29 33 35 34 37 38 41 45 43 44 48 49 49 50 49 49 49 51 53 53 54 56 58 61 65 68 70 70 69 70 69 69 68 69 70 71 71 71 72 72 71 71 72 70 70 70 70 68 68
27 36 34 35 36 44 45 39 44 42 45 48 49 49 49 50 50 52 52 52 52 54 57 60 64 67 69 71 69 69 67 66 65 67 67 69 70 72 72 71 73 72 73 71 71 72 71 70 67
30 34 34 35 34 33 39 37 43 37 42 45 47 48 48 49 50 51 52 53 53 54 55 57 64 68 68 70 71 68 69 66 66 66 67 68 69 71 71 71 71 71 72 72 72 71 71 71 69
31 31 34 35 32 31 42 34 40 47 34 38 41 46 47 49 50 51 52 52 53 53 54 56 62 67 69 69 70 70 68 68 65 66 63 63 66 70 69 69 69 70 71 71 71 71 71 71 70
31 30 27 31 33 37 41 35 34 33 34 37 41 44 46 48 50 51 52 52 53 54 55 56 62 67 69 69 70 70 70 69 68 68 64 66 63 65 69 70 70 69 70 70 71 70 70 70 69
29 28 24 25 31 33 36 30 33 34 36 38 42 46 47 48 48 49 51 53 55 55 56 57 62 68 69 69 69 70 70 68 66 67 66 63 64 66 69 70 71 71 71 71 70 71 71 70 70
27 24 25 23 22 25 25 35 27 32 36 40 42 47 49 49 48 50 51 54 56 57 58 60 63 68 68 68 70 70 70 69 67 69 67 65 68 67 70 70 70 71 71 71 70 69 69 68 67
20 25 23 22 22 20 30 28 24 34 32 35 40 44 51 52 53 53 54 56 59 58 60 62 64 66 67 68 70 70 69 69 70 69 69 69 70 70 68 68 67 68 68 69 68 66 66 66 65
19 24 26 26 33 23 17 28 37 29 35 32 38 45 51 52 54 55 58 59 60 59 60 61 65 67 68 69 69 69 69 70 70 68 70 70 69 68 68 67 67 66 67 67 67 66 67 65 66
20 23 23 22 23 19 20 18 20 28 30 34 38 48 51 52 55 56 58 60 60 61 62 64 67 69 70 70 70 71 70 70 68 69 68 68 67 68 68 67 66 66 66 67 67 65 65 64 64
Wind_Speed
14 15 14 8 9 6 12 15 17 9 14 14 9 11 17 17 17 11 22 21 29 24 22 19 16 15 15 13 13 12 12 12 12 10 9 8 7 7 7 8 9 9 11 11 10 9 11 12 11
16 9 8 5 1 11 8 19 15 9 12 11 11 5 12 18 11 23 19 24 25 23 22 21 16 15 14 14 12 12 12 11 11 10 8 7 6 5 6 7 7 8 10 11 11 10 12 12 11
18 12 15 5 3 14 8 4 14 11 5 5 6 9 12 9 14 15 25 23 26 22 22 23 17 15 14 13 12 11 11 10 10 9 7 6 5 6 5 6 5 8 9 9 11 10 10 12 11
10 14 10 1 12 11 14 15 10 11 5 7 4 14 10 5 12 23 22 20 22 22 24 21 18 15 13 12 11 11 9 9 8 8 6 6 6 6 8 7 6 8 8 8 10 10 9 11 10
17 7 2 12 17 8 10 10 4 4 11 6 5 14 14 9 5 23 21 20 20 24 24 20 16 14 13 12 10 11 9 9 8 9 6 6 8 8 8 7 8 7 8 8 7 8 8 8 8
14 1 4 11 13 10 8 8 7 7 11 6 6 14 7 8 13 21 18 18 16 23 21 20 15 13 12 10 10 9 9 9 8 7 7 7 8 7 7 7 7 7 7 6 6 5 6 6 6
19 3 10 9 15 12 9 6 11 6 10 14 2 13 11 16 23 20 18 18 15 20 21 18 17 13 11 10 10 9 8 9 8 8 7 6 7 6 5 6 4 5 3 5 5 3 3 6 6
10 16 10 11 31 10 7 12 3 11 15 8 4 10 17 19 24 21 18 18 15 17 19 17 19 16 14 14 10 7 8 7 9 8 8 7 7 7 6 5 6 5 3 3 3 4 5 5 5
11 6 7 13 24 6 3 13 4 2 9 11 6 4 28 25 23 21 19 18 16 13 17 15 19 16 12 12 12 9 8 7 7 8 8 8 5 9 6 5 6 3 4 4 5 6 7 8 9
11 7 13 11 11 3 6 11 3 8 4 7 9 17 25 27 23 22 20 20 18 15 15 13 11 18 12 11 13 11 13 12 9 6 8 4 1 3 2 3 2 4 6 6 10 11 12 11 14
5 9 7 9 11 7 5 11 8 11 1 12 15 18 24 25 22 22 20 19 20 17 15 16 11 7 15 11 10 13 12 11 12 10 4 5 5 5 4 11 7 7 12 12 14 17 15 17 5
5 6 8 4 5 2 2 9 3 4 10 5 17 20 23 23 22 21 20 19 19 18 16 16 15 10 9 8 9 4 2 4 10 9 8 6 5 6 9 8 7 9 9 8 7 10 8 7 8
1 4 1 1 3 2 1 2 3 2 2 9 17 20 22 22 21 20 18 17 18 17 16 15 14 12 8 8 6 4 7 9 5 9 12 7 10 9 8 6 9 10 10 9 9 8 10 9 16
7 4 2 1 2 2 9 1 4 3 4 12 17 18 19 20 21 19 18 17 15 15 15 14 14 15 12 10 5 4 8 11 5 3 4 1 10 6 9 6 9 10 11 9 9 6 9 14 14
2 10 6 6 4 2 8 4 2 8 7 13 16 16 17 19 20 19 18 17 15 14 14 14 13 15 13 12 10 9 11 11 8 9 9 8 10 10 7 8 12 14 7 10 9 9 12 13 14
12 12 4 8 3 3 8 11 7 9 8 12 16 16 16 18 20 18 18 17 17 15 13 13 13 14 15 13 12 12 11 11 11 9 11 11 14 12 6 9 11 14 14 14 10 12 11 11 11
18 2 7 9 5 2 6 2 11 11 10 12 14 17 17 17 19 18 19 17 18 14 15 13 12 11 10 12 12 11 11 10 10 10 9 10 14 12 9 11 13 12 13 12 10 10 13 11 13
11 3 7 3 6 8 8 8 14 13 11 10 13 17 18 19 19 21 19 20 16 18 14 14 14 14 13 12 13 13 13 12 12 12 11 12 6 10 9 12 12 11 11 12 12 12 12 9 10
8 8 8 2 2 5 9 7 5 16 15 13 11 16 20 19 21 20 20 18 19 15 19 15 15 13 15 14 13 14 15 12 15 12 8 9 12 16 16 17 10 13 13 13 12 10 12 13 11
13 3 10 6 2 7 9 8 10 16 18 16 15 13 16 19 22 20 21 21 19 20 17 17 16 16 15 14 14 14 10 8 9 7 11 13 13 15 15 13 11 10 10 12 12 11 10 10 8
15 8 4 5 8 12 11 20 22 15 19 17 17 17 16 18 19 20 22 22 21 21 20 18 18 17 16 16 14 11 11 11 10 7 8 11 13 16 14 11 10 10 9 11 11 10 10 12 6
10 12 7 11 14 11 32 12 17 17 17 19 19 19 18 17 18 21 21 20 22 21 21 21 18 17 17 16 15 13 13 12 12 11 6 5 10 14 10 11 9 8 9 11 10 8 10 8 12
13 8 14 13 17 22 21 4 15 9 18 17 17 21 19 22 21 18 23 24 21 21 22 21 19 16 15 16 17 14 16 13 7 5 1 7 7 8 6 3 7 7 7 8 8 7 9 8 10
11 13 18 18 19 6 13 23 13 20 8 8 9 19 20 22 21 21 19 19 21 19 20 19 17 15 16 17 17 16 10 7 4 4 5 6 4 4 3 3 7 9 8 9 7 6 7 8 7
13 18 18 9 6 7 23 20 12 9 8 7 10 5 9 20 20 20 20 20 18 19 20 18 16 17 16 16 15 13 8 7 7 4 6 6 4 5 3 6 7 8 8 7 8 9 7 6 6
16 21 22 12 7 10 16 6 5 9 10 7 8 11 8 9 18 20 20 19 18 17 17 18 17 17 15 13 11 8 8 9 5 3 6 6 4 2 3 4 4 6 3 5 5 5 6 6 4
19 21 18 20 23 13 11 12 16 8 8 11 10 8 9 10 11 15 18 20 19 18 18 18 16 14 12 12 9 9 9 2 2 1 4 5 3 1 4 5 7 8 7 7 5 6 7 7 8
25 13 16 17 18 13 7 17 8 14 10 7 10 8 10 10 12 13 13 13 13 16 17 15 14 12 11 12 11 10 9 6 6 5 1 1 4 3 3 5 6 6 7 7 7 6 8 8 8
18 18 15 16 10 13 9 5 11 6 12 4 8 10 13 14 15 16 13 15 16 15 14 15 13 14 13 12 11 10 7 6 9 7 7 7 5 6 5 6 8 10 10 7 6 7 9 8 10
23 25 22 19 14 15 8 15 5 11 8 4 9 14 17 16 15 15 15 15 13 14 14 14 15 15 14 13 11 8 8 10 8 7 7 6 7 8 5 6 6 8 7 9 11 10 10 10 11
Wind_Direction
164 182 204 211 342 189 55 67 43 71 76 80 75 24 67 39 33 101 123 127 130 141 135 147 136 133 129 125 126 125 119 117 124 136 124 118 115 114 114 97 84 107 125 135 130 120 130 130 131
178 195 225 239 231 55 67 21 63 64 70 92 77 87 83 64 79 117 124 132 136 132 149 140 136 134 132 130 125 119 117 116 118 122 120 116 114 121 124 120 107 108 122 131 134 134 137 130 129
261 223 265 256 15 58 65 225 75 65 62 129 111 40 35 74 117 118 126 141 133 148 140 127 138 138 135 130 126 116 116 122 118 113 113 114 118 104 111 131 131 114 122 132 130 138 141 134 135
236 227 248 147 94 79 72 37 62 107 101 357 21 97 88 85 120 127 138 148 135 139 128 133 142 142 142 135 132 127 127 124 126 128 126 129 118 104 105 130 103 114 118 131 129 131 140 134 140
248 67 109 28 88 74 83 74 62 1 64 67 6 79 83 100 117 131 146 142 150 139 123 141 146 148 148 145 136 126 124 128 114 112 111 95 102 118 108 114 111 114 115 118 121 133 138 141 151
289 352 288 71 83 88 106 124 73 93 73 81 95 91 96 158 158 143 156 146 148 119 137 137 147 153 156 151 142 138 129 133 130 112 109 108 112 116 123 123 122 123 123 132 137 132 142 157 170
276 329 349 60 76 73 80 71 133 79 70 61 74 80 133 167 142 148 156 144 146 127 141 151 160 159 164 161 154 156 150 146 138 142 140 130 119 118 119 122 126 123 128 142 146 145 175 177 183
300 27 261 58 74 315 93 94 350 33 71 94 322 124 148 156 150 151 156 147 149 150 139 157 155 161 169 158 163 150 155 161 154 161 147 145 148 156 165 182 167 156 158 175 179 205 218 205 201
273 172 359 47 134 168 158 100 358 16 126 53 52 49 139 157 156 158 153 156 154 165 151 165 156 150 167 156 160 168 175 171 178 181 177 180 188 216 141 144 167 175 212 229 233 221 226 234 226
277 357 27 15 23 102 93 79 133 105 319 113 89 110 145 158 162 163 163 167 158 175 163 156 154 153 162 171 146 187 177 188 196 196 177 232 313 1 255 163 166 245 238 243 237 223 224 225 237
349 25 16 35 21 349 20 120 255 114 329 273 128 141 156 164 169 168 171 174 169 174 168 162 179 181 163 161 189 177 192 176 184 191 202 197 237 225 260 230 213 230 227 243 229 219 223 225 200
280 52 356 17 33 212 288 85 169 305 61 358 124 152 164 171 174 174 176 176 171 174 178 169 170 198 176 180 190 213 307 268 174 172 208 200 219 246 237 278 280 250 278 255 235 261 247 302 274
354 74 254 149 317 310 343 56 31 94 69 114 137 153 166 176 176 176 177 176 175 178 181 184 172 183 210 219 203 170 237 214 257 172 196 206 225 238 269 255 256 273 288 297 280 232 251 258 270
29 342 318 130 242 171 249 131 133 100 135 129 152 159 167 177 178 175 182 176 186 177 176 187 185 174 204 212 204 211 233 226 260 65 77 124 264 257 268 313 296 267 265 261 300 285 269 233 243
144 232 171 163 198 299 303 214 218 108 133 149 161 167 167 180 181 178 185 180 187 177 169 181 191 184 196 208 215 213 218 256 212 228 220 218 243 266 300 302 285 288 289 252 282 279 288 270 244
226 20 271 98 220 192 251 231 113 148 156 164 165 170 172 180 180 182 185 188 175 180 172 188 194 193 183 205 203 230 218 222 233 222 202 212 224 239 258 253 257 259 269 262 231 264 258 249 271
310 109 83 135 182 211 235 356 133 173 176 161 176 173 178 177 185 182 183 196 179 192 174 192 196 201 185 199 220 219 242 232 253 238 199 187 226 233 254 269 258 267 263 275 258 276 263 264 272
297 64 84 92 143 214 251 263 143 180 190 173 171 175 184 185 191 179 194 186 205 173 191 193 202 202 209 205 218 232 226 235 233 232 236 192 199 230 245 262 273 265 246 258 249 251 269 267 264
308 302 96 314 81 269 231 254 190 172 194 185 182 176 184 193 190 188 194 194 192 198 180 203 208 210 206 211 221 223 233 220 238 246 238 207 222 205 232 249 266 257 247 249 247 250 261 268 250
279 42 328 71 242 255 267 268 195 185 194 201 190 186 180 191 189 196 192 201 204 188 198 202 211 208 214 217 218 243 252 254 243 260 229 229 227 234 232 233 241 257 261 254 257 254 255 252 250
258 275 252 310 296 251 262 349 281 192 187 195 197 197 190 180 183 187 197 198 198 196 195 210 209 213 210 227 214 226 247 247 237 252 256 244 236 237 233 241 242 250 248 257 268 262 263 273 255
305 318 296 280 269 152 243 217 336 174 192 190 202 194 196 190 190 177 187 201 202 203 200 203 207 209 213 211 225 217 230 240 231 221 233 256 239 246 224 242 244 249 259 270 265 266 265 269 269
291 354 307 302 286 267 350 262 200 208 174 188 206 197 207 189 192 198 189 186 205 196 199 200 194 201 214 205 227 214 230 252 254 242 257 262 280 271 235 235 251 260 260 252 257 261 272 266 270
258 288 252 248 252 267 243 295 103 271 66 137 180 187 201 197 203 193 197 196 193 194 194 195 183 194 207 208 211 228 250 246 233 238 285 279 229 245 82 300 294 295 287 275 284 284 274 280 264
220 252 254 251 259 62 243 265 64 101 59 104 144 159 196 189 203 191 195 199 203 198 195 199 181 200 206 207 212 214 210 200 213 239 253 321 243 242 170 294 285 286 286 294 298 298 307 304 276
211 243 272 284 191 240 209 306 121 227 110 81 120 136 159 183 192 201 193 200 202 208 198 200 187 203 201 201 204 190 182 203 225 210 322 240 194 199 5 353 336 357 329 316 334 345 349 335 338
239 237 272 293 287 239 4 175 150 67 94 119 135 146 165 170 180 192 189 194 196 200 194 199 190 197 188 179 170 173 182 178 45 78 221 184 179 51 43 23 30 42 33 27 25 32 17 7 353
242 249 224 239 268 269 88 302 153 169 76 81 143 174 141 148 164 170 183 177 185 195 190 187 179 183 170 156 163 174 162 173 134 181 52 325 78 92 79 57 66 61 52 33 1 35 42 13 11
208 242 256 280 201 278 283 99 275 137 92 47 132 156 156 160 159 163 162 173 176 173 172 170 168 151 159 155 155 136 146 155 185 171 146 130 134 100 82 63 50 44 44 39 38 36 42 27 43
237 217 237 239 224 263 313 298 206 84 50 149 149 154 162 162 158 159 160 162 159 154 152 150 147 149 152 147 149 144 172 191 165 150 125 135 106 97 89 66 67 68 48 33 34 33 30 32 33